| time (UTC) | temp F | wind direction | speed MPH | gust MPH | rain 1hr in | rain 24hr in | rain mn in | humidity % | barometer mb |
| 20260502221544 | 55 | 0 | 0.0 | 4.0 | 0.00 | 0.00 | 0.00 | 42 | 1015.4 |
| 20260502220046 | 55 | 0 | 1.0 | 6.0 | 0.00 | 0.00 | 0.00 | 39 | 1015.3 |
| 20260502214554 | 55 | 272 | 3.0 | 8.0 | 0.00 | 0.00 | 0.00 | 40 | 1015.3 |
| 20260502213041 | 55 | 208 | 0.0 | 7.0 | 0.00 | 0.00 | 0.00 | 43 | 1015.2 |
| 20260502211539 | 55 | 291 | 3.0 | 11.0 | 0.00 | 0.00 | 0.00 | 40 | 1015.1 |
| 20260502210046 | 55 | 287 | 2.0 | 8.0 | 0.00 | 0.00 | 0.00 | 40 | 1015.1 |
| 20260502204543 | 57 | 58 | 3.0 | 10.0 | 0.00 | 0.00 | 0.00 | 38 | 1015.1 |
| 20260502203040 | 56 | 18 | 2.0 | 8.0 | 0.00 | 0.00 | 0.00 | 39 | 1015.2 |
| 20260502201539 | 56 | 0 | 3.0 | 10.0 | 0.00 | 0.00 | 0.00 | 40 | 1015.3 |
| 20260502200039 | 56 | 281 | 3.0 | 11.0 | 0.00 | 0.00 | 0.00 | 39 | 1015.3 |
| 20260502194543 | 55 | 339 | 2.0 | 11.0 | 0.00 | 0.00 | 0.00 | 40 | 1015.6 |
| 20260502193042 | 56 | 4 | 3.0 | 9.0 | 0.00 | 0.00 | 0.00 | 39 | 1015.8 |
| 20260502191547 | 56 | 0 | 2.0 | 8.0 | 0.00 | 0.00 | 0.00 | 40 | 1016.0 |
| 20260502190044 | 55 | 249 | 2.0 | 9.0 | 0.00 | 0.00 | 0.00 | 43 | 1016.1 |
| 20260502184555 | 55 | 325 | 4.0 | 10.0 | 0.00 | 0.00 | 0.00 | 40 | 1016.2 |
| 20260502183045 | 55 | 278 | 1.0 | 8.0 | 0.00 | 0.00 | 0.00 | 40 | 1016.4 |
| 20260502181540 | 55 | 101 | 1.0 | 9.0 | 0.00 | 0.00 | 0.00 | 40 | 1016.2 |
| 20260502163049 | 56 | 74 | 3.0 | 9.0 | 0.00 | 0.00 | 0.00 | 43 | 1016.8 |
| 20260502161539 | 55 | 45 | 3.0 | 9.0 | 0.00 | 0.00 | 0.00 | 44 | 1017.0 |
| 20260502151539 | 54 | 28 | 1.0 | 8.0 | 0.00 | 0.00 | 0.00 | 54 | 1017.4 |
| 20260502123055 | 41 | 0 | 0.0 | 2.0 | 0.00 | 0.00 | 0.00 | 89 | 1017.6 |
| 20260502121543 | 40 | 229 | 1.0 | 3.0 | 0.00 | 0.00 | 0.00 | 90 | 1017.3 |
| 20260502114545 | 39 | 207 | 1.0 | 3.0 | 0.00 | 0.00 | 0.00 | 90 | 1017.6 |
| 20260502113044 | 39 | 216 | 1.0 | 4.0 | 0.00 | 0.00 | 0.00 | 89 | 1017.4 |
| 20260502111544 | 38 | 230 | 2.0 | 4.0 | 0.00 | 0.00 | 0.00 | 89 | 1017.3 |
| 20260502110040 | 38 | 234 | 2.0 | 4.0 | 0.00 | 0.00 | 0.00 | 89 | 1017.1 |
| 20260502104549 | 38 | 231 | 3.0 | 5.0 | 0.00 | 0.00 | 0.00 | 89 | 1017.2 |
| 20260502103043 | 38 | 234 | 2.0 | 5.0 | 0.00 | 0.00 | 0.00 | 89 | 1017.0 |
| 20260502101602 | 38 | 247 | 2.0 | 5.0 | 0.00 | 0.00 | 0.00 | 88 | 1017.4 |
| 20260502070051 | 42 | 235 | 4.0 | 7.0 | 0.00 | 0.00 | 0.00 | 82 | 1017.0 |
| 20260502064544 | 42 | 229 | 3.0 | 6.0 | 0.00 | 0.00 | 0.00 | 80 | 1017.0 |
| 20260502063041 | 43 | 245 | 3.0 | 6.0 | 0.00 | 0.00 | 0.00 | 78 | 1017.1 |
| 20260502061539 | 44 | 237 | 2.0 | 5.0 | 0.00 | 0.00 | 0.00 | 76 | 1017.4 |
| 20260502060043 | 44 | 218 | 3.0 | 7.0 | 0.00 | 0.00 | 0.00 | 75 | 1017.5 |
| 20260502054545 | 45 | 235 | 3.0 | 6.0 | 0.00 | 0.00 | 0.00 | 74 | 1017.3 |
| 20260502053105 | 46 | 221 | 2.0 | 6.0 | 0.00 | 0.00 | 0.00 | 73 | 1017.5 |
| 20260502051542 | 47 | 0 | 0.0 | 5.0 | 0.00 | 0.00 | 0.00 | 71 | 1017.4 |
| 20260502050039 | 48 | 0 | 0.0 | 2.0 | 0.00 | 0.00 | 0.00 | 69 | 1017.2 |
| 20260502044539 | 49 | 202 | 0.0 | 3.0 | 0.00 | 0.00 | 0.00 | 67 | 1017.3 |
| 20260502043042 | 50 | 222 | 1.0 | 3.0 | 0.00 | 0.00 | 0.00 | 63 | 1017.5 |
| 20260502041543 | 50 | 264 | 0.0 | 3.0 | 0.00 | 0.00 | 0.00 | 59 | 1017.5 |
| 20260502040045 | 51 | 356 | 1.0 | 5.0 | 0.00 | 0.00 | 0.00 | 59 | 1017.5 |
| 20260502034540 | 51 | 313 | 0.0 | 6.0 | 0.00 | 0.00 | 0.00 | 58 | 1017.5 |
| 20260502033044 | 52 | 337 | 2.0 | 6.0 | 0.00 | 0.00 | 0.00 | 59 | 1017.3 |
| 20260502031540 | 52 | 70 | 1.0 | 7.0 | 0.00 | 0.00 | 0.00 | 59 | 1017.5 |
| 20260502030052 | 52 | 0 | 0.0 | 8.0 | 0.00 | 0.00 | 0.00 | 60 | 1017.3 |
| 20260502024545 | 52 | 241 | 5.0 | 13.0 | 0.00 | 0.00 | 0.00 | 60 | 1017.5 |
| 20260502023059 | 53 | 116 | 1.0 | 7.0 | 0.00 | 0.00 | 0.00 | 63 | 1017.2 |
| 20260502021544 | 53 | 301 | 3.0 | 10.0 | 0.00 | 0.00 | 0.00 | 63 | 1017.0 |
| 20260502020041 | 54 | 343 | 3.0 | 9.0 | 0.00 | 0.00 | 0.00 | 63 | 1016.4 |
| 20260502014542 | 54 | 112 | 1.0 | 9.0 | 0.00 | 0.00 | 0.00 | 65 | 1016.1 |
| 20260502013044 | 53 | 339 | 4.0 | 12.0 | 0.00 | 0.00 | 0.00 | 71 | 1015.7 |
| 20260502011548 | 53 | 0 | 0.0 | 2.0 | 0.00 | 0.00 | 0.00 | 75 | 1015.6 |
| 20260502010041 | 53 | 0 | 1.0 | 4.0 | 0.00 | 0.00 | 0.00 | 74 | 1015.2 |
| 20260502004548 | 53 | 224 | 1.0 | 4.0 | 0.00 | 0.00 | 0.00 | 72 | 1015.1 |
| 20260502003041 | 54 | 172 | 1.0 | 4.0 | 0.00 | 0.00 | 0.00 | 68 | 1014.8 |
| 20260502001539 | 55 | 250 | 1.0 | 6.0 | 0.00 | 0.00 | 0.00 | 63 | 1014.7 |
| 20260502000046 | 56 | 3 | 1.0 | 9.0 | 0.00 | 0.00 | 0.00 | 62 | 1014.6 |
| 20260501234541 | 56 | 320 | 4.0 | 9.0 | 0.00 | 0.00 | 0.00 | 59 | 1014.2 |
| 20260501233040 | 56 | 229 | 2.0 | 9.0 | 0.00 | 0.00 | 0.00 | 59 | 1013.7 |
| 20260501231539 | 57 | 308 | 3.0 | 11.0 | 0.00 | 0.00 | 0.00 | 58 | 1013.6 |
| 20260501230047 | 58 | 310 | 1.0 | 10.0 | 0.00 | 0.00 | 0.00 | 61 | 1013.6 |
| 20260501224550 | 58 | 296 | 3.0 | 9.0 | 0.00 | 0.00 | 0.00 | 57 | 1013.6 |
| 20260501223105 | 59 | 312 | 2.0 | 12.0 | 0.00 | 0.00 | 0.00 | 58 | 1013.5 |